Location: *
(43.4667°N, 11.6833°E)
Time: 15:59:52
(UTC+00:00)

Meteor 2-19 Rocket - Pass Details

Date: 19 July 2019
Orbit: 937 x 958 km, 82.5° (Epoch: 21 August)

Event Time Altitude Azimuth Distance (km) Brightness Sun altitude
Rises 23:27:39 0° 348° (NNW) 3,643 8.7 -25.8°
Reaches altitude 10° 23:30:09 10° 346° (NNW) 2,695 7.8 -25.7°
Maximum altitude 23:36:16 66° 266° (W) 1,039 4.5 -25.7°
Enters shadow 23:37:14 58° 220° (SW) 1,112 4.5 -25.7°
